GFSFLT2_prec_cthk_213.txt.gz
RH
42 42 43 46 50 48 50 49 48 47 46 42 38 38 36 34 34 33 34 34 35 36 36 33 29 30 32 32 29 24 20 20
47 46 43 45 47 50 51 51 52 48 47 45 42 40 41 40 37 36 35 34 35 36 36 34 30 32 32 32 30 27 23 19
50 49 47 46 49 51 51 50 52 53 51 50 47 44 43 44 42 40 39 37 37 36 37 36 31 33 34 32 29 29 26 22
50 49 49 50 49 52 52 53 54 54 53 52 49 47 47 48 48 45 41 41 40 39 38 37 33 35 35 33 28 29 29 26
49 48 47 46 47 50 57 56 56 56 55 54 51 50 52 52 53 47 42 43 43 40 39 37 33 34 35 32 29 29 30 28
48 47 47 47 48 47 51 59 59 58 57 56 54 53 54 57 54 49 44 46 46 43 41 37 34 35 35 32 30 30 30 31
48 47 44 45 45 45 47 53 59 59 57 55 53 55 58 60 61 52 47 49 48 46 42 39 36 36 36 33 32 31 31 32
47 48 46 44 45 48 45 47 53 56 54 54 53 56 60 63 60 54 50 48 46 44 43 40 38 36 36 35 34 34 33 32
42 45 47 46 44 47 48 45 48 52 53 52 52 53 57 61 60 54 50 49 47 45 43 42 40 36 36 36 37 37 37 37
42 42 44 46 45 45 49 48 47 48 53 54 52 51 54 58 58 54 51 49 48 47 46 43 41 37 37 39 40 40 41 40
41 42 43 45 48 50 50 51 49 48 50 54 53 52 52 56 58 56 52 50 49 49 49 46 44 42 41 41 42 44 45 44
39 39 40 42 47 53 54 52 50 48 47 50 55 55 52 53 56 56 53 50 48 49 50 49 46 44 45 45 45 48 49 49
37 38 37 43 47 49 50 48 47 48 46 47 53 59 58 53 53 57 53 51 50 49 49 48 48 46 45 48 50 52 53 53
36 36 38 42 45 43 47 48 49 49 50 50 51 55 57 58 55 56 55 53 51 48 48 47 45 46 47 50 54 55 55 56
37 37 39 41 46 49 50 53 56 55 52 48 47 49 54 59 60 60 59 57 56 54 49 46 47 48 47 46 52 52 55 59
37 42 43 44 47 49 47 47 45 45 42 45 48 50 52 58 63 65 64 62 62 58 54 53 51 49 51 49 47 45 53 58
37 43 46 48 49 48 48 54 52 50 51 51 51 49 50 54 58 63 69 70 71 70 68 58 56 56 52 53 52 51 51 50
42 41 44 49 52 53 54 54 56 58 58 54 53 51 51 53 56 58 61 64 65 64 66 68 64 61 58 55 53 52 54 55
46 45 44 48 52 55 58 58 59 59 60 61 61 58 55 53 56 58 59 61 65 68 67 69 67 65 62 59 56 57 57 58
47 47 47 46 49 54 55 58 60 61 64 65 64 63 61 63 63 66 72 73 75 75 76 75 74 71 64 61 61 62 62 62

GFSFLT2_prec_cthk_216.txt.gz
RH
43 45 45 48 52 50 49 51 51 49 48 51 54 54 46 41 33 32 33 33 33 33 34 34 31 27 30 32 30 24 25 26
44 46 48 49 50 55 51 54 56 53 51 52 55 51 43 37 36 35 35 35 35 35 35 34 33 29 31 32 31 28 29 25
44 46 50 52 55 55 57 59 60 58 55 52 53 47 41 39 38 38 38 37 36 38 36 36 36 31 32 33 32 34 32 28
46 48 53 52 54 57 59 59 64 61 58 54 51 50 45 42 42 42 40 39 38 40 38 36 37 33 34 34 37 34 33 32
49 49 54 55 54 55 56 59 60 62 59 57 54 55 54 51 47 47 46 43 40 40 40 38 43 38 34 40 38 34 32 33
50 49 50 54 50 50 52 57 58 60 60 60 62 59 57 56 53 53 52 48 44 42 43 47 46 42 39 40 39 36 34 34
53 48 50 51 50 47 48 50 56 58 59 62 61 61 59 59 57 59 60 55 48 50 52 51 49 42 39 38 40 38 36 36
51 48 50 51 47 48 47 46 50 57 61 62 61 62 60 59 60 64 64 59 55 54 55 53 51 47 43 41 41 40 38 38
46 43 47 49 51 52 51 48 48 50 58 63 60 60 58 60 62 66 66 64 57 55 53 52 50 48 46 43 42 42 40 39
47 47 45 47 51 54 53 52 48 44 49 59 60 59 57 60 62 65 66 60 57 55 53 50 51 50 47 45 42 43 43 42
47 47 44 44 52 53 54 54 52 49 44 51 57 58 57 58 60 63 62 58 55 54 52 52 53 53 49 46 43 43 44 44
48 50 47 46 50 52 53 53 52 52 49 45 51 55 57 58 60 60 60 57 53 52 53 53 54 54 52 50 46 46 46 47
44 48 47 49 48 48 49 48 50 50 50 49 47 51 57 60 59 59 60 58 54 50 53 55 55 55 54 53 50 50 50 51
40 46 50 49 47 45 46 47 49 50 52 50 49 47 51 59 58 56 59 57 53 49 48 52 54 54 53 53 52 50 48 50
42 44 47 50 45 47 47 49 52 55 53 49 48 47 47 52 58 60 60 58 55 51 47 46 51 53 51 49 51 48 49 51
42 47 49 51 51 47 45 44 46 46 48 49 50 50 47 50 54 61 64 62 59 55 51 48 49 49 52 49 49 48 49 53
38 45 52 54 56 53 51 49 47 48 49 51 51 50 50 52 54 55 63 67 65 62 57 51 50 52 52 56 55 53 53 50
41 42 50 55 57 57 56 56 52 51 49 50 51 49 49 50 55 56 58 62 68 70 66 62 58 57 59 60 58 57 56 55
49 48 48 53 59 59 59 59 61 59 56 52 54 53 50 50 52 55 56 57 61 65 71 71 71 66 67 66 66 66 67 65
51 51 51 51 53 56 59 63 63 63 63 61 60 59 55 56 56 57 60 62 64 67 69 71 71 68 66 66 67 66 70 72

GFSFLT2_prec_cthk_219.txt.gz
RH
43 45 49 50 50 50 53 53 52 51 49 46 48 51 53 54 49 37 32 34 35 34 35 34 31 28 27 30 29 28 31 29
44 44 45 47 52 54 55 56 55 54 51 50 51 54 56 56 46 38 35 35 35 36 35 36 32 31 28 29 30 32 33 32
44 46 46 48 50 53 59 56 56 56 57 57 54 57 58 54 44 36 35 38 36 36 37 36 34 34 29 29 33 39 36 33
47 47 48 50 55 52 57 60 59 62 63 63 58 59 59 51 41 37 37 36 36 36 37 37 36 35 33 32 37 39 38 32
49 48 49 52 56 56 57 60 62 63 65 64 63 62 57 50 41 38 37 37 36 38 39 39 43 37 35 34 40 38 39 32
51 50 50 53 56 58 56 57 66 65 67 66 66 64 56 49 44 41 42 40 41 43 43 45 46 44 37 43 38 43 42 35
51 50 50 51 54 58 56 56 58 60 65 68 65 63 57 52 49 46 47 47 50 52 50 49 51 48 44 42 39 45 43 37
53 53 50 51 52 55 54 52 54 59 60 60 62 65 61 56 53 51 53 55 62 57 53 51 54 52 48 43 42 43 41 40
55 55 51 52 52 54 53 51 52 53 55 59 62 66 63 61 58 55 56 61 67 66 57 55 57 55 51 45 44 43 45 42
57 55 51 50 52 53 53 54 52 50 51 57 63 66 64 63 60 58 58 63 73 72 63 59 57 56 54 50 48 44 43 42
56 53 51 48 52 54 54 54 56 54 51 53 59 64 66 62 59 58 57 64 72 72 66 61 58 57 55 54 53 48 45 43
51 58 51 50 53 56 58 58 58 59 52 50 51 57 61 62 61 58 55 59 65 67 63 60 56 56 57 58 56 53 51 49
48 53 55 55 54 55 57 54 56 58 54 54 53 49 55 60 62 59 55 56 57 62 61 61 57 55 56 59 59 57 55 52
44 49 54 56 56 54 55 56 57 56 58 56 58 59 59 58 63 60 54 57 58 60 57 59 57 54 54 58 60 60 56 57
40 42 46 52 57 61 57 57 59 60 59 57 57 59 59 57 59 62 58 59 58 56 57 57 57 55 54 50 56 53 57 54
40 39 43 48 53 61 58 58 58 53 51 53 55 56 59 60 60 59 61 64 60 58 59 59 58 54 54 51 51 52 53 56
43 44 42 47 55 56 55 56 57 54 55 56 54 56 57 59 63 62 60 65 67 65 63 63 60 58 52 53 54 53 51 52
46 41 43 48 55 59 55 51 54 57 56 58 57 56 59 59 61 64 61 61 64 66 69 69 67 64 60 57 57 56 57 58
53 49 47 52 60 61 60 57 56 58 59 59 60 58 57 59 60 61 63 61 64 64 66 70 71 70 69 65 64 64 64 65
56 54 55 54 61 63 68 62 61 61 62 61 62 59 58 58 59 61 62 64 66 67 68 68 70 73 73 74 74 72 74 75

GFSFLT2_prec_cthk_225.txt.gz
RH
49 45 44 43 41 42 46 47 47 47 46 47 44 44 42 39 35 29 27 29 30 29 29 29 31 30 30 34 32 26 24 23
49 54 47 44 40 42 48 50 52 53 50 49 48 46 46 44 41 36 30 29 29 28 29 29 30 32 32 32 35 31 23 18
44 55 57 51 49 53 55 54 54 56 54 52 51 51 49 47 45 43 38 31 30 27 28 30 31 33 35 34 33 34 28 22
43 49 53 57 56 56 54 55 56 58 59 59 56 53 52 52 50 49 43 35 31 29 28 29 32 32 37 38 32 35 33 27
42 45 51 51 55 57 57 57 57 58 59 60 60 56 55 54 54 52 47 39 34 30 28 29 31 33 36 39 37 34 33 31
43 46 47 49 49 51 52 54 55 56 58 59 62 57 54 54 56 55 51 43 36 31 29 29 31 32 36 39 38 39 34 33
43 46 46 47 46 48 50 51 53 55 56 60 62 59 57 57 56 57 55 47 37 31 29 29 31 32 37 38 38 41 38 34
44 46 47 46 44 47 48 52 54 55 56 58 59 63 59 60 58 61 57 49 40 34 33 33 33 34 37 37 37 41 41 36
44 47 49 48 45 49 50 50 51 53 57 57 59 64 62 66 65 63 59 51 43 38 36 36 37 38 39 40 38 43 43 39
44 47 48 50 50 52 54 51 51 52 58 56 57 59 62 64 66 68 64 54 47 43 40 40 43 47 49 43 40 43 44 42
41 45 47 49 53 54 54 51 51 52 55 55 55 57 59 61 67 72 66 59 51 48 46 44 49 58 62 56 45 45 46 44
41 42 47 51 54 56 54 56 55 55 55 56 54 54 57 58 60 64 67 65 59 54 52 49 54 65 75 69 54 46 47 45
41 42 47 54 55 56 55 54 56 55 54 57 57 57 57 56 57 64 65 67 66 63 60 55 61 69 76 76 64 53 50 48
43 39 45 49 56 55 50 51 55 55 55 57 58 59 60 62 57 56 63 69 67 69 64 60 64 68 72 76 70 62 57 52
44 41 44 48 53 60 61 60 60 64 59 56 55 61 63 64 62 60 59 61 66 73 69 64 63 66 64 67 67 61 61 57
46 45 42 49 56 58 62 60 57 52 53 53 57 59 61 64 68 63 63 62 64 65 68 68 65 64 64 63 61 54 61 61
48 46 51 55 54 63 70 74 62 60 58 59 64 67 65 65 67 66 64 66 68 67 65 63 63 65 63 62 58 57 56 56
47 49 51 53 54 69 83 85 85 83 73 65 64 71 72 71 67 66 64 67 69 69 70 70 67 66 64 62 58 55 55 55
50 51 51 54 56 57 63 81 86 83 79 71 70 67 69 70 70 70 66 65 65 68 72 74 72 70 67 63 62 59 58 57
55 55 55 55 55 56 56 58 61 86 88 76 84 76 73 68 69 70 69 66 66 67 69 72 75 73 72 71 68 67 65 62

GFSFLT2_prec_cthk_231.txt.gz
RH
32 36 41 41 38 36 43 47 46 37 31 28 28 28 29 30 31 31 27 25 24 27 29 29 32 30 28 26 21 19 18 17
33 37 45 45 40 38 45 48 50 43 32 31 30 28 29 30 32 32 28 25 23 25 30 29 31 32 30 28 27 21 18 18
38 36 49 50 46 42 46 49 52 50 38 38 35 31 32 33 36 33 30 26 24 23 29 30 31 32 32 30 28 26 20 16
40 40 45 53 52 47 50 51 53 50 48 43 42 40 41 42 42 40 34 28 24 23 28 31 32 32 33 32 32 27 24 19
46 44 46 50 56 53 50 50 52 50 51 50 47 48 49 49 49 47 43 34 27 24 29 30 30 31 32 33 34 32 27 25
47 49 45 49 55 58 53 50 52 50 49 51 55 55 54 55 55 57 51 42 32 27 29 31 30 31 31 32 33 33 31 27
49 51 48 46 51 60 60 54 54 53 51 52 62 58 59 59 60 60 56 51 41 34 32 33 31 31 32 33 33 34 34 32
49 51 50 47 50 51 60 61 57 55 57 64 63 60 61 61 61 62 62 56 51 42 36 33 31 29 31 33 33 34 35 35
48 48 52 49 50 51 53 59 61 61 63 63 65 63 65 65 65 62 61 64 62 53 43 35 32 30 31 33 36 38 38 37
47 45 47 51 50 50 52 55 58 60 62 63 65 64 65 66 64 65 62 66 69 60 50 42 35 32 33 35 37 40 40 39
47 47 47 49 52 51 51 54 56 57 59 59 60 61 65 64 63 68 68 69 70 65 57 49 40 35 36 36 39 42 42 40
48 49 46 50 52 53 56 56 61 62 60 56 57 60 61 63 63 64 69 68 69 71 62 54 46 38 38 40 41 45 50 48
46 48 45 51 51 58 58 57 62 61 59 58 59 60 60 63 63 61 69 66 69 75 70 62 54 45 41 43 45 48 55 59
47 48 45 49 49 53 55 55 57 56 59 62 62 61 58 59 58 57 61 71 72 72 73 67 61 53 44 48 51 52 61 66
45 47 46 48 49 54 62 64 66 69 67 65 65 63 59 60 59 59 58 62 67 74 76 70 61 55 49 49 54 51 60 67
44 49 49 50 52 56 62 61 62 63 64 63 62 62 59 59 62 63 60 59 63 69 73 72 67 60 57 56 53 52 57 62
43 51 53 52 52 54 58 62 62 63 63 63 66 65 64 61 61 64 66 61 61 63 67 73 71 65 60 62 59 58 57 54
46 46 53 56 59 60 59 60 64 64 67 70 71 72 71 69 64 63 67 66 65 64 62 67 71 72 68 64 61 60 59 57
45 46 54 56 62 65 64 63 67 71 74 76 79 77 77 72 66 63 66 67 68 72 70 65 66 68 67 59 60 60 61 59
44 52 53 56 62 66 66 65 72 75 80 86 86 88 83 86 74 68 68 69 72 75 75 71 70 69 70 68 61 60 64 62

GFSFLT2_prec_cthk_234.txt.gz
RH
36 38 37 40 46 47 41 35 37 38 34 34 32 29 31 32 32 32 32 29 24 26 31 30 29 26 24 21 20 19 17 16
38 41 39 41 47 48 39 37 41 38 34 34 30 30 31 32 33 34 36 31 25 24 30 32 31 28 26 24 21 19 18 16
41 45 46 43 48 48 39 41 47 43 39 34 31 30 30 31 33 34 35 33 27 25 28 33 33 33 29 26 24 20 17 16
45 47 47 44 51 51 41 44 51 49 42 37 34 31 31 31 33 34 34 36 29 27 26 33 35 32 32 30 25 22 18 16
48 49 51 49 52 56 51 43 52 51 44 38 35 34 33 33 36 37 37 37 35 29 26 32 34 32 31 32 29 25 22 18
50 50 56 56 52 56 59 50 48 51 51 41 38 39 39 40 43 43 40 41 39 33 27 30 33 33 31 32 33 30 26 23
52 54 56 58 56 55 59 60 53 54 56 54 47 46 46 50 54 52 50 47 44 36 30 30 33 35 32 32 33 33 32 28
53 56 55 57 57 56 56 62 62 58 55 57 58 51 50 59 59 59 60 54 49 43 35 32 34 34 34 32 33 34 34 33
54 55 57 56 56 59 56 58 64 64 59 59 60 58 57 67 60 60 64 63 58 58 43 37 36 37 35 33 33 34 36 36
56 57 57 58 57 58 60 56 57 65 68 64 62 59 68 72 65 66 64 67 66 58 54 47 41 39 37 35 34 34 35 37
58 58 55 55 56 57 58 60 58 59 66 68 68 69 72 72 71 69 71 68 71 64 62 56 49 44 41 37 37 37 37 36
57 57 54 54 52 54 60 64 62 62 61 65 68 73 72 71 69 69 71 70 75 71 68 63 55 51 45 41 39 39 39 39
50 52 49 50 50 57 62 64 67 65 63 63 64 69 70 68 68 69 69 72 74 74 69 66 62 54 51 45 42 42 41 43
44 46 44 45 51 53 58 61 62 62 61 63 67 68 65 67 68 68 68 74 74 74 73 68 65 59 56 54 49 45 42 45
44 45 43 43 50 56 63 67 69 70 69 67 65 66 64 62 64 66 67 71 69 76 73 70 68 65 61 57 56 45 47 49
45 46 44 44 52 56 61 61 61 61 63 65 64 66 65 66 63 65 64 69 69 67 75 75 73 67 64 59 53 46 50 51
47 47 46 48 53 55 57 61 60 62 64 65 65 66 65 64 65 64 65 70 70 67 69 72 74 75 68 64 57 52 51 50
47 48 49 53 57 57 56 59 63 64 65 66 67 67 67 67 68 67 66 68 68 69 66 66 70 78 77 68 62 57 56 59
48 49 54 57 60 63 61 64 67 65 65 66 67 66 69 68 70 69 71 68 68 69 68 65 66 70 74 75 70 62 63 66
52 54 56 59 62 63 63 64 68 69 68 69 69 68 70 69 73 72 73 73 71 73 74 70 69 71 70 71 74 72 69 66